[ ตารางข้อมูล ] [ Min-Max ] [ วันนี้4 ] [ วันนี้2 ] [ เทียบ3วัน A ] [ เทียบ4วัน B ]   

วันนี้2   [ ◀ ช่วงเก่ากว่า ] [ ช่วงที่ 183 ] [ ช่วงใหม่กว่า ▶ ] [ ล่าสุด ]    [ 3 ชั่วโมง ] [ 6 ชั่วโมง ] [ 12 ชั่วโมง ] [ 24 ชั่วโมง ]   วันนี้2

อุณภูมิตู้ Knockdown4529  ราย 6 ชั่วโมง  ที่วัดได้ ในช่วงวันเวลา 18/03/2026 (20:05) ถึง 19/03/2026 (02:05) 
ความชื้นในตู้ Knockdown4529  ราย 6 ชั่วโมง  ที่วัดได้ ในช่วงวันเวลา 18/03/2026 (20:05) ถึง 19/03/2026 (02:05) 

 
DS18B20SHTC3 
IDDate d/m/Y & Timedata1
สูง
data2
ต่ำ
data3
นอก
temp
pcb
hum
pcb
Time
 3788  19/03/2026 02:05:45  28.8  28.8  27.0  28.7  73.5  02:05 
 3787  19/03/2026 02:01:01  28.8  28.8  27.0  28.6  73.4  02:01 
 3786  19/03/2026 01:56:20  28.8  28.8  27.0  28.9  73.4  01:56 
 3785  19/03/2026 01:51:36  28.8  28.8  27.0  28.6  73.4  01:51 
 3784  19/03/2026 01:46:55  28.8  28.8  27.1  28.6  73.4  01:46 
 3783  19/03/2026 01:42:14  28.8  28.8  27.0  28.7  73.7  01:42 
 3782  19/03/2026 01:37:32  28.8  28.8  27.1  28.8  73.6  01:37 
 3781  19/03/2026 01:32:51  28.8  28.8  27.1  28.7  73.3  01:32 
 3780  19/03/2026 01:28:09  28.8  28.8  27.2  28.7  73.4  01:28 
 3779  19/03/2026 01:23:27  28.8  28.8  27.2  28.6  73.4  01:23 
 3778  19/03/2026 01:18:43  28.8  28.9  27.2  28.7  73.3  01:18 
 3777  19/03/2026 01:14:01  28.8  28.8  27.2  28.6  73.2  01:14 
 3776  19/03/2026 01:09:19  28.8  28.9  27.2  28.8  73.3  01:09 
 3775  19/03/2026 01:04:38  28.8  28.9  27.2  28.6  73.1  01:04 
 3774  19/03/2026 00:59:56  28.8  28.9  27.2  28.8  73.2  00:59 
 3773  19/03/2026 00:55:14  28.8  28.9  27.2  28.8  73.2  00:55 
 3772  19/03/2026 00:50:32  28.8  28.9  27.2  28.7  73.1  00:50 
 3771  19/03/2026 00:45:50  28.8  28.9  27.2  28.7  73.2  00:45 
 3770  19/03/2026 00:41:08  28.8  28.9  27.2  28.6  73.1  00:41 
 3769  19/03/2026 00:36:27  28.8  28.9  27.3  28.6  73.0  00:36 
 3768  19/03/2026 00:31:45  28.8  28.9  27.2  28.9  73.1  00:31 
 3767  19/03/2026 00:27:03  28.8  28.9  27.3  28.7  73.1  00:27 
 3766  19/03/2026 00:22:21  28.8  28.9  27.2  28.6  73.1  00:22 
 3765  19/03/2026 00:17:39  28.8  28.9  27.3  28.9  73.0  00:17 

Data every 5 minute.


ใช้เวลาประมวลผล 0.00674 วินาที